Location: Bernay
(48.6766°N, 2.9386°E)
Time: 21:43:43
(UTC+00:00)

ARIANE 5 R/B - Pass Details

Date: 12 January 2026
Orbit: 746 x 793 km, 98.8° (Epoch: 17 February)

Event Time Altitude Azimuth Distance (km) Brightness Sun altitude
Rises 18:07:24 0° 187° (S) 3,276 6.0 -17.7°
Reaches altitude 10° 18:09:52 10° 195° (SSW) 2,353 5.4 -18.1°
Maximum altitude 18:14:41 38° 263° (W) 1,207 4.1 -18.9°
Drops below altitude 10° 18:19:32 10° 331° (NNW) 2,368 5.3 -19.7°
Sets 18:22:03 0° 339° (NNW) 3,299 5.9 -20.1°
